"Pseudo-MPEC" for P12oAS5

Created 2026 Jul 28 21:35:05 UT using Find_Orb

Click here for an explanation of pseudo-MPECs

 
 Astrometry: 
     P12oAS5*0C2026 07 23.53962600 14 50.204+28 43 20.87   ~7NGZ 21.24wXNEOCPF51
     P12oAS5 0C2026 07 23.55205600 14 51.455+28 43 28.86   ~7NGZ 21.23wXNEOCPF51
     P12oAS5 0C2026 07 23.56453700 14 52.737+28 43 37.10   ~7NGZ 21.56wXNEOCPF51
     P12oAS5 0C2026 07 23.57704400 14 54.006+28 43 45.45   ~7NGZ 21.56wXNEOCPF51
     P12oAS5 KB2026 07 26.33894700 19 40.166+29 11 59.21   ~7Q95 21.0 GXNEOCP734
     P12oAS5 KB2026 07 26.34866900 19 41.186+29 12 05.90   ~7Q95 20.7 GXNEOCP734
     P12oAS5 KB2026 07 26.35803200 19 42.098+29 12 12.49   ~7Q95 20.9 GXNEOCP734
     P12oAS5 0C2026 07 26.49995600 19 56.630+29 13 37.38   ~7QDZ 21.97wXNEOCPF52
     P12oAS5 0C2026 07 26.50959800 19 57.566+29 13 43.11   ~7QDZ 21.76wXNEOCPF52
     P12oAS5 0C2026 07 26.52891400 19 59.453+29 13 54.56   ~7QDZ 21.94wXNEOCPF52

Station data:
(734) Farpoint Observatory, Eskridge  (N38.890239 W96.002420)  US/Kansas.
   Observer G. Hug. 0.69-m reflector + CCD.
(F51) Pan-STARRS 1, Haleakala  (N20.707234 W156.255910)  US/Hawaii.
   Observers J. Herman, T. Lowe, P. Minguez, A. Schultz, I. Smith. Measurers
   K. Chambers, T. de Boer, J. Fairlamb, H. Gao, M. Huber, C.-C. Lin, E.
   Magnier, Y. Ramanjooloo, R. Wainscoat, R. Weryk. 1.8-m Ritchey-Chrétien +
   CCD.
(F52) Pan-STARRS 2, Haleakala  (N20.707382 W156.255910)  US/Hawaii.
   Observers J. Herman, T. Lowe, P. Minguez, A. Schultz, I. Smith. Measurers
   K. Chambers, T. de Boer, J. Fairlamb, H. Gao, M. Huber, C.-C. Lin, E.
   Magnier, Y. Ramanjooloo, R. Wainscoat, R. Weryk. 1.8-m Ritchey-Chrétien +
   CCD.

Orbital elements:  P12oAS5
   Perihelion 2026 Jul 5.386882 +/- 7.88 TT =  9:17:06.6 (JD 2461226.886882)
Epoch 2026 Jul 26.0 TT = JDT 2461247.5   Earth MOID: 0.5463      AutoNEOCP
M   6.445317994 +/- 4.0             (J2000 ecliptic)
n   0.312680402 +/- 0.102           Peri.  108.462176 +/- 6
a   2.149820868 +/- 0.466           Node   210.929010 +/- 3.3
e   0.31968685 +/- 0.116            Incl.   16.275955 +/- 1.0
P   3.15212                H 19.27  G  0.15   U 11.2
q 1.462551407 +/- 0.074    Q 2.837090330 +/- 0.864
From 10 observations 2026 July 23-26; mean residual 0".38
Residuals in arcseconds: 
260723 F51  .08-  .07+    260726 734  .40-  1.3-    260726 F52  .07-  .06+    
260723 F51  .18-  .12-    260726 734  .44+  .42-    260726 F52  .03+  .01+    
260723 F51  .09+  .06-    260726 734  .34+  .59+    
260723 F51  .17+  .12+    260726 F52  .02-  .10+    

Ephemerides (geocentric):
Date (UTC) HH   RA             Dec           delta  r     elong  mag " sig PA
---- --------  ------------   ------------  ------ ------ -----  --- --------
2026 07 28 22  00 23 56.781   +29 35 51.20  .82681 1.4747 105.9 21.3 9.89  55
2026 07 28 23  00 24 00.851   +29 36 13.01  .82661 1.4747 105.9 21.3 10.1  55
2026 07 29 00  00 24 04.918   +29 36 34.77  .82642 1.4748 105.9 21.3 10.3  55
2026 07 29 01  00 24 08.983   +29 36 56.49  .82622 1.4748 106.0 21.3 10.5  55
2026 07 29 02  00 24 13.046   +29 37 18.17  .82602 1.4749 106.0 21.3 10.7  55
2026 07 29 03  00 24 17.105   +29 37 39.81  .82583 1.4749 106.0 21.3 11.0  55
2026 07 29 04  00 24 21.162   +29 38 01.41  .82563 1.4749 106.0 21.3 11.2  55
2026 07 29 05  00 24 25.216   +29 38 22.96  .82544 1.4750 106.1 21.3 11.4  55
2026 07 29 06  00 24 29.267   +29 38 44.48  .82524 1.4750 106.1 21.3 11.6  55
2026 07 29 07  00 24 33.316   +29 39 05.95  .82505 1.4751 106.1 21.3 11.9  55
2026 07 29 08  00 24 37.362   +29 39 27.38  .82485 1.4751 106.1 21.3 12.1  55
2026 07 29 09  00 24 41.405   +29 39 48.77  .82466 1.4752 106.1 21.3 12.3  55
2026 07 29 10  00 24 45.445   +29 40 10.12  .82446 1.4752 106.2 21.3 12.6  55
2026 07 29 11  00 24 49.483   +29 40 31.42  .82426 1.4752 106.2 21.3 12.8  55
2026 07 29 12  00 24 53.518   +29 40 52.69  .82407 1.4753 106.2 21.3 13.0  55
2026 07 29 13  00 24 57.550   +29 41 13.91  .82387 1.4753 106.2 21.3 13.3  55
2026 07 29 14  00 25 01.579   +29 41 35.09  .82368 1.4754 106.2 21.3 13.5  54
2026 07 29 15  00 25 05.606   +29 41 56.23  .82348 1.4754 106.3 21.3 13.8  54
2026 07 29 16  00 25 09.630   +29 42 17.33  .82329 1.4755 106.3 21.3 14.0  54
2026 07 29 17  00 25 13.651   +29 42 38.39  .82309 1.4755 106.3 21.3 14.3  54
2026 07 29 18  00 25 17.669   +29 42 59.40  .82290 1.4756 106.3 21.3 14.5  54
2026 07 29 19  00 25 21.685   +29 43 20.37  .82270 1.4756 106.3 21.3 14.8  54
2026 07 29 20  00 25 25.698   +29 43 41.30  .82251 1.4756 106.4 21.3 15.0  54
2026 07 29 21  00 25 29.708   +29 44 02.19  .82231 1.4757 106.4 21.3 15.3  54
2026 07 29 22  00 25 33.715   +29 44 23.04  .82212 1.4757 106.4 21.3 15.6  54
2026 07 29 23  00 25 37.720   +29 44 43.84  .82192 1.4758 106.4 21.3 15.8  54
2026 07 30 00  00 25 41.722   +29 45 04.61  .82173 1.4758 106.4 21.3 16.1  54
2026 07 30 01  00 25 45.721   +29 45 25.33  .82153 1.4759 106.5 21.3 16.4  54
2026 07 30 02  00 25 49.717   +29 45 46.01  .82134 1.4759 106.5 21.3 16.6  54
2026 07 30 03  00 25 53.710   +29 46 06.64  .82114 1.4760 106.5 21.3 16.9  54
2026 07 30 04  00 25 57.701   +29 46 27.24  .82095 1.4760 106.5 21.3 17.2  54
2026 07 30 05  00 26 01.689   +29 46 47.79  .82075 1.4760 106.5 21.3 17.5  54
2026 07 30 06  00 26 05.674   +29 47 08.30  .82056 1.4761 106.6 21.3 17.7  54
2026 07 30 07  00 26 09.656   +29 47 28.77  .82036 1.4761 106.6 21.3 18.0  54
2026 07 30 08  00 26 13.635   +29 47 49.19  .82017 1.4762 106.6 21.3 18.3  54
2026 07 30 09  00 26 17.612   +29 48 09.58  .81997 1.4762 106.6 21.3 18.6  54
2026 07 30 10  00 26 21.586   +29 48 29.92  .81978 1.4763 106.6 21.3 18.9  54
2026 07 30 11  00 26 25.557   +29 48 50.22  .81958 1.4763 106.7 21.3 19.2  54
2026 07 30 12  00 26 29.525   +29 49 10.47  .81939 1.4764 106.7 21.3 19.5  54
2026 07 30 13  00 26 33.490   +29 49 30.69  .81919 1.4764 106.7 21.3 19.8  54
2026 07 30 14  00 26 37.453   +29 49 50.86  .81900 1.4764 106.7 21.3 20.1  54
2026 07 30 15  00 26 41.413   +29 50 10.99  .81880 1.4765 106.8 21.3 20.4  54
2026 07 30 16  00 26 45.369   +29 50 31.08  .81861 1.4765 106.8 21.3 20.7  54
2026 07 30 17  00 26 49.323   +29 50 51.12  .81841 1.4766 106.8 21.3 21.0  54
2026 07 30 18  00 26 53.275   +29 51 11.12  .81822 1.4766 106.8 21.3 21.3  54
2026 07 30 19  00 26 57.223   +29 51 31.08  .81802 1.4767 106.8 21.3 21.6  54
2026 07 30 20  00 27 01.169   +29 51 51.00  .81783 1.4767 106.9 21.3 21.9  54
2026 07 30 21  00 27 05.111   +29 52 10.88  .81763 1.4768 106.9 21.3 22.2  54